Weather History for Lamoni, IA

Change the Weather History Date:

Saturday, September 27, 2014

  Actual Average Record
Temperature  
Mean Temperature 71 °F 60 °F  
Max Temperature 80 °F 72 °F 88 °F (1971)
Min Temperature 61 °F 49 °F 37 °F (1993)
Degree Days  
Heating Degree Days 0 6  
Month to date heating degree days 99 72  
Since 1 July heating degree days 106 80  
Cooling Degree Days 6 1  
Month to date cooling degree days 75 91  
Year to date cooling degree days 892 929  
Growing Degree Days 20 (Base 50)    
Moisture  
Dew Point 61 °F    
Average Humidity 74    
Maximum Humidity 93    
Minimum Humidity 54    
Precipitation  
Precipitation 0.00 in 0.09 in 1.13 in (1999)
Month to date precipitation 6.81 3.21  
Sea Level Pressure  
Sea Level Pressure 30.13 in    
Wind  
Wind Speed 5 mph (ESE)    
Max Wind Speed 13 mph    
Max Gust Speed 15 mph    
Visibility 10 miles    
Events Thunderstorm    
T = Trace of Precipitation, MM = Missing Value Source: NWS Daily Summary

Daily Weather History Graph

Daily Weather History Graph

Search for Another Location

Airport:

Trip Planner

Search our weather history database for the weather conditions in past years. The results will help you decide how hot, cold, wet, or windy it might be!

Date:

Astronomy

Sep. 27, 2014 Rise Set
Actual Time 7:08 AM CDT 7:04 PM CDT
Civil Twilight 6:40 AM CDT 7:31 PM CDT
Nautical Twilight 6:09 AM CDT 8:03 PM CDT
Astronomical Twilight 5:36 AM CDT 8:35 PM CDT
Moon 10:24 AM CDT (9/27) 9:03 PM CDT (9/27)
Length of Visible Light 12h 50m
Length of Day
11h 56m
Waxing Crescent, 11% of the Moon is Illuminated
Sep 27
Waxing Crescent
Oct 1
First Quarter
Oct 8
Full
Oct 15
Last Quarter
Oct 23
New

Hourly Weather History & Observations

Time (CDT) Temp. Dew Point Humidity Pressure Visibility Wind Dir Wind Speed Gust Speed Precip Events Conditions
12:53 AM 66.0 °F 62.1 °F 87% 30.13 in 10.0 mi ESE 4.6 mph - N/A   Clear
1:53 AM 64.9 °F 61.0 °F 87% 30.14 in 10.0 mi East 5.8 mph - N/A   Partly Cloudy
2:53 AM 64.9 °F 61.0 °F 87% 30.14 in 10.0 mi ESE 4.6 mph - N/A   Mostly Cloudy
3:53 AM 64.0 °F 61.0 °F 90% 30.14 in 10.0 mi ESE 3.5 mph - N/A   Partly Cloudy
4:53 AM 63.0 °F 61.0 °F 93% 30.14 in 10.0 mi Calm Calm - N/A   Overcast
5:53 AM 62.1 °F 60.1 °F 93% 30.14 in 9.0 mi ENE 4.6 mph - N/A   Scattered Clouds
6:53 AM 63.0 °F 60.1 °F 90% 30.16 in 10.0 mi East 4.6 mph - N/A   Overcast
7:45 AM 63.0 °F 61.0 °F 93% 30.17 in 7.0 mi East 3.5 mph - N/A Thunderstorm Overcast
7:53 AM 63.0 °F 61.0 °F 93% 30.17 in 7.0 mi East 3.5 mph - N/A Thunderstorm Overcast
8:12 AM 63.0 °F 61.0 °F 93% 30.18 in 6.0 mi ENE 3.5 mph - N/A   Overcast
8:53 AM 64.0 °F 61.0 °F 90% 30.17 in 7.0 mi Calm Calm - N/A   Overcast
9:53 AM 66.0 °F 61.0 °F 84% 30.17 in 10.0 mi ESE 3.5 mph - N/A   Overcast
10:53 AM 70.0 °F 64.0 °F 81% 30.17 in 10.0 mi East 3.5 mph - N/A   Partly Cloudy
11:53 AM 75.0 °F 64.9 °F 71% 30.16 in 10.0 mi Variable 3.5 mph - N/A   Partly Cloudy
12:53 PM 77.0 °F 62.1 °F 60% 30.14 in 10.0 mi Variable 4.6 mph - N/A   Clear
1:53 PM 77.0 °F 63.0 °F 62% 30.12 in 10.0 mi ESE 3.5 mph - N/A   Mostly Cloudy
2:53 PM 79.0 °F 61.0 °F 54% 30.09 in 10.0 mi SSE 9.2 mph - N/A   Partly Cloudy
3:53 PM 79.0 °F 60.1 °F 52% 30.08 in 10.0 mi ESE 8.1 mph - N/A   Partly Cloudy
4:53 PM 78.1 °F 60.1 °F 54% 30.07 in 10.0 mi SE 8.1 mph - N/A   Partly Cloudy
5:53 PM 77.0 °F 60.1 °F 56% 30.07 in 10.0 mi SE 5.8 mph - N/A   Partly Cloudy
6:53 PM 73.9 °F 61.0 °F 64% 30.08 in 10.0 mi SSE 4.6 mph - N/A   Partly Cloudy
7:53 PM 72.0 °F 60.1 °F 66% 30.09 in 10.0 mi SE 3.5 mph - N/A   Clear
8:53 PM 70.0 °F 60.1 °F 71% 30.11 in 10.0 mi SE 4.6 mph - N/A   Partly Cloudy
9:53 PM 68.0 °F 60.1 °F 76% 30.11 in 10.0 mi SE 6.9 mph - N/A   Clear
10:53 PM 66.9 °F 59.0 °F 76% 30.12 in 10.0 mi SSE 6.9 mph - N/A   Clear
11:53 PM 64.9 °F 59.0 °F 81% 30.11 in 10.0 mi South 5.8 mph - N/A   Clear